Weather History for Mayport NS, FL

Change the Weather History Date:

Friday, February 22, 2013

  Actual Average Record
Temperature  
Mean Temperature 70 °F -  
Max Temperature 78 °F 64 °F 82 °F (2003)
Min Temperature 62 °F 51 °F 35 °F (1999)
Cooling Degree Days 5    
Growing Degree Days 20 (Base 50)    
Moisture  
Dew Point 65 °F    
Average Humidity 89    
Maximum Humidity 100    
Minimum Humidity 64    
Precipitation  
Precipitation 0.00 in - - ()
Sea Level Pressure  
Sea Level Pressure 30.05 in    
Wind  
Wind Speed 7 mph (SSE)    
Max Wind Speed 15 mph    
Max Gust Speed 21 mph    
Visibility 9 miles    
Events      
Averages and records for this station are not official NWS values.
T = Trace of Precipitation, MM = Missing Value Source: NWS Daily Summary

Daily Weather History Graph

Daily Weather History Graph

Search for Another Location

Airport:

Trip Planner

Search our weather history database for the weather conditions in past years. The results will help you decide how hot, cold, wet, or windy it might be!

Date:

Astronomy

Feb. 22, 2013 Rise Set
Actual Time 6:59 AM EST 6:19 PM EST
Civil Twilight 6:34 AM EST 6:43 PM EST
Nautical Twilight 6:06 AM EST 7:11 PM EST
Astronomical Twilight 5:38 AM EST 7:39 PM EST
Moon 3:37 PM EST (2/22) 4:34 AM EST (2/22)
Length of Visible Light 12h 09m
Length of Day
11h 20m
Waxing Gibbous, 90% of the Moon is Illuminated
Feb 22
Waxing Gibbous
Feb 25
Full
Mar 4
Last Quarter
Mar 11
New
Mar 19
First Quarter

Hourly Weather History & Observations

Time (EST) Temp. Dew Point Humidity Pressure Visibility Wind Dir Wind Speed Gust Speed Precip Events Conditions
12:52 AM 66.0 °F 62.1 °F 87% 30.07 in 10.0 mi ESE 4.6 mph - N/A   Overcast
1:52 AM 64.9 °F 62.1 °F 90% 30.06 in 10.0 mi ESE 3.5 mph - N/A   Mostly Cloudy
2:52 AM 66.0 °F 64.0 °F 93% 30.05 in 10.0 mi ESE 5.8 mph - N/A   Mostly Cloudy
3:52 AM 64.9 °F 64.0 °F 97% 30.04 in 10.0 mi SE 6.9 mph - N/A   Overcast
4:14 AM 64.4 °F 64.4 °F 100% 30.04 in 10.0 mi SSE 4.6 mph - N/A   Scattered Clouds
4:22 AM 64.4 °F 64.4 °F 100% 30.03 in 10.0 mi SSE 5.8 mph - N/A   Mostly Cloudy
4:52 AM 64.9 °F 64.0 °F 97% 30.04 in 10.0 mi SSE 5.8 mph - N/A   Mostly Cloudy
5:38 AM 64.4 °F 64.4 °F 100% 30.05 in 10.0 mi SSE 5.8 mph - N/A   Mostly Cloudy
5:49 AM 64.4 °F 62.6 °F 94% 30.05 in 9.0 mi SSE 4.6 mph - N/A   Scattered Clouds
5:52 AM 64.9 °F 63.0 °F 93% 30.05 in 9.0 mi SSE 4.6 mph - N/A   Partly Cloudy
6:52 AM 64.0 °F 63.0 °F 96% 30.07 in 6.0 mi SSE 3.5 mph - N/A   Scattered Clouds
7:02 AM 62.6 °F 62.6 °F 100% 30.07 in 4.0 mi South 3.5 mph - N/A   Mostly Cloudy
7:18 AM 64.4 °F 62.6 °F 94% 30.08 in 4.0 mi South 4.6 mph - N/A   Overcast
7:37 AM 64.4 °F 64.4 °F 100% 30.08 in 4.0 mi South 5.8 mph - N/A   Overcast
7:52 AM 64.9 °F 64.0 °F 97% 30.08 in 4.0 mi South 5.8 mph - N/A   Mostly Cloudy
8:52 AM 68.0 °F 64.9 °F 90% 30.10 in 10.0 mi South 10.4 mph - N/A   Mostly Cloudy
9:52 AM 73.9 °F 64.0 °F 71% 30.09 in 10.0 mi South 8.1 mph - N/A   Overcast
10:52 AM 75.9 °F 64.9 °F 69% 30.08 in 10.0 mi SSE 8.1 mph - N/A   Mostly Cloudy
11:52 AM 78.1 °F 64.9 °F 64% 30.08 in 10.0 mi SE 12.7 mph - N/A   Mostly Cloudy
12:52 PM 73.0 °F 64.9 °F 76% 30.06 in 10.0 mi SE 12.7 mph - N/A   Mostly Cloudy
1:52 PM 73.0 °F 64.9 °F 76% 30.04 in 10.0 mi SE 13.8 mph - N/A   Overcast
2:52 PM 73.0 °F 66.0 °F 79% 30.04 in 10.0 mi SE 12.7 mph - N/A   Overcast
3:52 PM 71.1 °F 64.9 °F 81% 30.03 in 10.0 mi SSE 12.7 mph - N/A   Mostly Cloudy
4:52 PM 70.0 °F 66.0 °F 87% 30.03 in 10.0 mi SSE 11.5 mph - N/A   Overcast
5:52 PM 69.1 °F 64.9 °F 87% 30.03 in 10.0 mi SSE 10.4 mph - N/A   Overcast
6:52 PM 68.0 °F 66.0 °F 93% 30.03 in 10.0 mi SSE 10.4 mph - N/A   Clear
7:52 PM 69.1 °F 66.9 °F 93% 30.04 in 10.0 mi SSE 13.8 mph - N/A   Clear
8:52 PM 70.0 °F 66.9 °F 90% 30.04 in 10.0 mi SSE 15.0 mph - N/A   Mostly Cloudy
9:40 PM 69.8 °F 66.2 °F 88% 30.04 in 10.0 mi South 3.5 mph - N/A   Overcast
9:50 PM 71.6 °F 66.2 °F 83% 30.05 in 10.0 mi SW 6.9 mph - N/A   Overcast
9:52 PM 71.1 °F 66.9 °F 87% 30.05 in 10.0 mi WSW 4.6 mph - N/A   Overcast
10:52 PM 70.0 °F 66.9 °F 90% 30.04 in 10.0 mi Calm Calm - N/A   Overcast
11:43 PM 71.6 °F 66.2 °F 83% 30.01 in 10.0 mi SSE 13.8 mph 20.7 mph N/A   Scattered Clouds
11:52 PM 71.1 °F 66.9 °F 87% 30.00 in 10.0 mi SSE 13.8 mph - N/A   Partly Cloudy